Вернуться в каталог

COSMOS 2251 DEB

АктивенLEO
NORAD 34883·DEBRIS·🇷🇺 Russia

Запущен Jun 16, 1993 с Plesetsk Cosmodrome

Loading…

Ближайшие Пролёты (ближайшие 24 часа)

TLE

СвежийSource: Space-Track

Эпоха: Sep 14, 2026, 00:55 UTC

1 34883U 93036ACW 26257.03821283  .00011321  00000-0  23457-2 0  9997
2 34883  74.1954 266.4927 0084272   1.2421 358.8937 14.58058622904442

Отслеживайте COSMOS 2251 DEB в реальном времени с AllMySat

Download on the App Store